Tracking 19254 objects as of 22-Oct-2018
HD Live streaming from Space Station
objects crossing your sky now

RUBIN 2

Track RUBIN 2 now!
10-day predictions
RUBIN 2 is classified as:


NORAD ID: 27605
Int'l Code: 2002-058A
Perigee: 598.0 km
Apogee: 706.5 km
Inclination: 64.6 °
Period: 97.6 minutes
Semi major axis: 7023 km
RCS: 0.234 m2 (medium)
Launch date: December 20, 2002
Source: Germany (GER)
Launch site: TYURATAM MISSILE AND SPACE COMPLEX (TTMTR)

Uplink (MHz): 435.275
Downlink (MHz): 145.825
Beacon (MHz): 145.825
Mode: U/1200 D/9600 MSK
Call sign:
Status: Inactive

aabbcc
Your satellite tracking list
Your tracking list is empty




NASA's NSSDC Master Catalog

Two Line Element Set (TLE):
1 27605U 02058A   18294.58450368 -.00000068 +00000-0 +11432-4 0  9998
2 27605 064.5566 047.0108 0077253 302.6936 056.6732 14.75008649851891
Source of the keplerian elements: AFSPC